www.pogodaiklimat.ru

Погода и климат >> Архив погоды >> Финляндия >> Лемланд Нихамн


ПОГОДА в Лемланд Нихамн

  • Прогноз погоды в Лемланд Нихамн
  • Монитор погоды в Лемланд Нихамн

АРХИВ ПОГОДЫ в Лемланд Нихамн

Время (UTC), дата Ветер
(напр.,м/с)
 
Видим.   Явления Облачность Т
(С)
Тd
(С)
f
(%)
Тe
(С)
Тes
(С)
Комфортность P
(гПа)
Po
(гПа)
Тmin
(С)
Tmax
(С)
R
(мм)
R24
(мм)
S
(см)
22 8.06 Ю 9-9
{10}
14 км 8/8 1500 м
[]
+13.8 +13.2 96 +11 +11 1014.0 1012.7
23 8.06 ЮЗ 10 13 км 10/10 1500 м
[]
+13.4 +12.9 97 +10 +10 1014.6 1013.3
00 9.06 ЮЗ 9-9
{12}
13 км слаб. ливневой дождь 9/9 2000 м
[]
+13.7 +12.9 95 +11 +11 1015.0 1013.7
01 9.06 ЮЗ 7 20 км в посл. час дождь 10/10
[]
+13.5 +12.8 96 +11 +11 1015.1 1013.8
02 9.06 ЮЗ 8-9
{9}
24 км 1/0
[]
+12.8 +12.1 96 +10 +10 1015.7 1014.5
03 9.06 ЮЗ 8-9
{9}
35 км {ливн. осадки} 3/0 1500 м
[]
+13.0 +12.1 94 +10 +10 1016.2 1014.9
04 9.06 ЮЗ 8 35 км ясно +13.1 +11.8 92 +10 +10 1016.6 1015.3
05 9.06 ЮЗ 8-9
{9}
40 км ясно +13.3 +11.1 87 +10 +11 1017.3 1016.1
06 9.06 ЮЗ 8-9
{9}
40 км {ливн. осадки, метель} ясно +13.0 +11.2 89 +10 +11 1017.9 1016.6 +12.7 +14.2
07 9.06 Ю 9 30 км ясно +12.8 +11.0 89 +10 +10 1018.2 1016.9
08 9.06 Ю 11-13
{13}
27 км ясно +12.9 +10.9 88 +9 +9 1018.8 1017.5
09 9.06 Ю 12-13
{13}
28 км ясно +13.1 +10.8 86 +10 +10 1019.0 1017.7
10 9.06 Ю 11 23 км ясно +13.2 +10.7 85 +10 +10 1019.1 1017.8
11 9.06 Ю 11-13
{13}
25 км ясно +13.1 +10.5 84 +10 +10 1018.8 1017.6
12 9.06 Ю 12-13
{14}
28 км ясно +13.0 +10.4 84 +9 +9 1018.5 1017.3
13 9.06 Ю 11 40 км ясно +13.3 +10.1 81 +10 +10 1018.2 1017.0
14 9.06 Ю 11-13
{14}
30 км ясно +12.9 +10.5 85 +9 +9 1018.0 1016.7
15 9.06 Ю 11-13
{15}
28 км ясно +12.9 +10.3 84 +9 +9 1017.6 1016.3
16 9.06 ЮЗ 11 23 км 4/4 2000 м
[]
+12.5 +10.3 86 +9 +9 1017.4 1016.2
17 9.06 ЮЗ 11 20 км 3/3
[]
+12.2 +10.3 88 +8 +8 1017.2 1015.9
18 9.06 ЮЗ 10-12
{13}
19 км 9/9 2000 м
[]
+12.1 +10.4 89 +8 +8 1017.3 1016.0 +11.9 +13.5
19 9.06 ЮЗ 11-12
{13}
22 км 8/0 1000 м
[]
+12.1 +10.3 89 +8 +8 1017.7 1016.4
20 9.06 ЮЗ 8 21 км 5/5 1500 м
[]
+11.9 +10.3 90 +9 +9 1017.9 1016.6
21 9.06 ЮЗ 9-10
{11}
23 км 1/0 2000 м
[]
+11.5 +10.3 92 +8 +8 1018.2 1016.9
22 9.06 ЮЗ 12-14
{14}
35 км ясно +12.7 +9.5 81 +9 +9 1018.5 1017.2
23 9.06 ЮЗ 11-12
{12}
35 км ясно +12.3 +9.3 82 +9 +9 1018.8 1017.6
00 10.06 ЮЗ 9-11
{12}
30 км ясно +11.7 +9.3 85 +8 +8 1018.8 1017.6
01 10.06 ЮЗ 11 30 км ясно +11.9 +8.7 81 +8 +8 1018.8 1017.5
02 10.06 ЮЗ 12 29 км ясно +11.7 +9.1 84 +8 +8 1018.7 1017.5
03 10.06 ЮЗ 12-14
{14}
24 км ясно +11.5 +9.3 86 +7 +7 1018.8 1017.6
04 10.06 ЮЗ 12-14
{14}
22 км ясно +11.4 +9.4 88 +7 +7 1019.0 1017.8
05 10.06 ЮЗ 11 24 км ясно +11.2 +9.3 88 +7 +7 1019.1 1017.9
06 10.06 ЮЗ 10-11
{12}
23 км ясно +11.4 +9.4 88 +7 +8 1019.1 1017.9 +11.2 +12.9
07 10.06 ЮЗ 10-11
{11}
26 км ясно +11.7 +9.5 86 +8 +8 1019.3 1018.0
08 10.06 ЮЗ 9 30 км ясно +11.6 +9.7 88 +8 +9 1019.5 1018.3
09 10.06 ЮЗ 10-11
{11}
30 км ясно +11.6 +10.0 90 +8 +8 1019.7 1018.4
10 10.06 Ю 10 28 км ясно +11.9 +10.0 88 +8 +9 1020.0 1018.7
11 10.06 ЮЗ 11 35 км ясно +12.0 +9.9 87 +8 +8 1020.0 1018.7
12 10.06 Ю 10-12
{13}
27 км ясно +12.3 +9.9 85 +9 +9 1019.9 1018.7
13 10.06 Ю 11-12
{12}
30 км ясно +12.3 +9.9 85 +9 +9 1019.8 1018.5
14 10.06 ЮЗ 11-12
{13}
35 км ясно +12.5 +9.8 84 +9 +9 1019.6 1018.3
15 10.06 ЮЗ 11-12
{14}
30 км ясно +12.7 +9.9 83 +9 +9 1019.5 1018.2
16 10.06 Ю 10-11
{13}
30 км ясно +12.3 +9.8 85 +9 +9 1019.6 1018.3
17 10.06 Ю 9 30 км ясно +11.9 +9.7 86 +8 +9 1019.7 1018.5
18 10.06 ЮЗ 9-10
{11}
30 км ясно +12.2 +9.7 85 +9 +9 1019.6 1018.4 +11.3 +12.8
19 10.06 ЮЗ 8 29 км ясно +11.9 +9.9 88 +9 +9 1019.8 1018.5
20 10.06 ЮЗ 7 35 км ясно +12.0 +10.2 89 +9 +9 1019.9 1018.6
21 10.06 ЮЗ 7-8
{8}
30 км ясно +11.9 +10.2 89 +9 +9 1020.3 1019.1
22 10.06 ЮЗ 7-7
{8}
35 км ясно +11.8 +10.0 89 +9 +9 1020.7 1019.4
23 10.06 З 5 45 км ясно +12.1 +10.1 88 +10 +10 1020.9 1019.7
00 11.06 ЮЗ 4-4
{6}
45 км ясно +12.1 +10.2 88 +10 +10 1020.9 1019.6
01 11.06 ЮЗ 4-4
{4}
45 км ясно +11.9 +10.1 89 +10 +10 1021.1 1019.9
02 11.06 Ю 1-2
{4}
40 км ясно +11.5 +9.5 88 +11 +11 1021.2 1019.9
03 11.06 Ю 2-2
{2}
35 км ясно +11.3 +10.0 92 +10 +10 1021.7 1020.4
04 11.06 ЮЗ 3 35 км ясно +11.3 +10.1 92 +9 +11 1022.0 1020.8
05 11.06 Ю 3-4
{4}
35 км ясно +11.6 +10.2 91 +10 +12 1021.8 1020.6
06 11.06 ЮЗ 2-3
{3}
45 км 5/5
[]
+12.7 +10.6 87 +12 +15 1021.9 1020.7 +10.9 +12.8
07 11.06 ЮЗ 2 35 км 9/9
[]
+12.8 +10.6 86 +12 +13 1022.3 1021.0
08 11.06 С 1 40 км 6/6
[]
+14.6 +10.7 77 +15 +20 1022.4 1021.2
09 11.06 В 2-3
{3}
40 км 8/0
[]
+17.0 +8.9 59 +17 +25 1022.5 1021.3
10 11.06 В 4-4
{4}
30 км 4/0
[]
+16.8 +9.0 60 +16 +22 1022.3 1021.1
11 11.06 СЗ 2 40 км ясно +15.7 +11.9 78 +16 +30 опасность
простуды
1023.2 1022.0
12 11.06 СВ 6-8
{9}
35 км ясно +18.1 +10.2 60 +18 +23 1023.0 1021.8
13 11.06 СВ 9 35 км 1/1
[]
+16.2 +9.6 65 +14 +16 1023.4 1022.1
14 11.06 СВ 7-10
{11}
35 км 5/5
[]
+16.1 +7.7 57 +15 +16 1023.0 1021.8
15 11.06 СВ 7-9
{11}
30 км 6/0
[]
+15.7 +7.6 59 +14 +15 1022.8 1021.5
16 11.06 СВ 7 35 км 1/1
[]
+15.8 +7.1 56 +14 +15 1022.6 1021.3
17 11.06 СВ 9 40 км 9/9
[]
+14.9 +8.2 64 +13 +13 1022.5 1021.3
18 11.06 СВ 9-11
{13}
30 км 6/6
[]
+13.9 +8.0 68 +11 +11 1022.7 1021.4 +12.6 +18.2
19 11.06 СВ 9-13
{13}
50 км 9/9
[]
+13.9 +7.9 67 +11 +11 1022.4 1021.2
20 11.06 С 9 45 км 9/9
[]
+13.5 +7.9 69 +11 +11 1022.4 1021.2
21 11.06 СВ 9-13
{13}
40 км 10/0
[]
+13.8 +8.3 69 +11 +11 1022.2 1020.9
22 11.06 СВ 9-12
{12}
50 км 9/9
[]
+14.1 +9.1 72 +12 +12 1022.1 1020.9
23 11.06 СВ 10-13
{13}
45 км 9/0
[]
+14.7 +9.3 70 +12 +12 1022.4 1021.2
00 12.06 СВ 11-12
{13}
50 км 10/10
[]
+14.1 +8.7 70 +11 +11 1022.9 1021.7
01 12.06 СВ 11 50 км 9/9
[]
+13.6 +7.2 65 +11 +11 1023.1 1021.8
02 12.06 СВ 12 50 км 6/6
[]
+12.7 +6.3 65 +9 +9 1022.9 1021.6
03 12.06 СВ 11-13
{13}
50 км 9/0
[]
+12.5 +6.3 66 +9 +9 1023.3 1022.0
04 12.06 СВ 10 50 км 9/9
[]
+12.5 +6.2 65 +9 +9 1023.7 1022.4
05 12.06 СВ 9 50 км 9/9
[]
+12.5 +6.4 66 +9 +9 1023.5 1022.2
06 12.06 СВ 8-10
{13}
50 км 3/3
[]
+13.3 +5.7 60 +11 +11 1023.9 1022.7 +12.4 +14.8
07 12.06 СВ 9 50 км 8/8
[]
+13.1 +6.1 62 +10 +10 1024.3 1023.1
08 12.06 СВ 8-9
{10}
50 км 6/6
[]
+12.9 +6.4 65 +10 +11 1024.6 1023.4
09 12.06 СВ 6-7
{9}
45 км слаб. ливневой дождь 9/1 600 м
[]
+13.2 +8.6 74 +11 +13 1025.1 1023.9
10 12.06 СВ 9 40 км в посл. час морось 9/9
[]
+13.7 +7.6 67 +11 +11 1024.1 1022.8
11 12.06 СВ 9 50 км 4/4
[]
+14.4 +7.7 64 +12 +13 1023.6 1022.3
12 12.06 СВ 8-10
{10}
45 км слаб. морось {дождь} 6/6
[]
+14.4 +8.6 68 +12 +13 1024.1 1022.8
13 12.06 СВ 8-11
{11}
40 км слаб. ливневой дождь 6/6 1000 м
[]
+14.3 +9.0 70 +12 +13 1023.1 1021.8
14 12.06 СВ 9 50 км в посл. час морось 5/5
[]
+14.8 +8.9 68 +13 +13 1021.9 1020.7
15 12.06 В 7-8
{11}
40 км {ливн. осадки, дождь} 8/0
[]
+14.1 +9.8 75 +12 +13 1022.3 1021.1
16 12.06 В 9-10
{10}
45 км 6/0
[]
+13.3 +9.2 76 +10 +11 1022.4 1021.1
17 12.06 В 9-10
{10}
50 км 9/0
[]
+13.5 +8.6 72 +11 +11 1022.0 1020.7
18 12.06 В 7-8
{10}
50 км {ливн. осадки, дождь} 9/9
[]
+13.6 +8.6 72 +11 +11 1021.7 1020.4 +12.3 +15.8
19 12.06 В 12 40 км слаб. ливневой дождь 8/8
[]
+13.2 +8.9 75 +10 +10 1021.1 1019.9
20 12.06 В 9-13
{13}
50 км 8/0
[]
+13.4 +8.6 73 +11 +11 1020.8 1019.5
21 12.06 В 11-15
{15}
50 км 9/9
[]
+13.5 +7.9 69 +10 +10 1020.1 1018.8
22 12.06 В 11 50 км 1/1
[]
+13.1 +8.1 72 +10 +10 1019.8 1018.6
23 12.06 В 12 40 км 10/8 1000 м
[]
+13.1 +7.9 71 +10 +10 1019.2 1017.9
00 13.06 В 12-15
{17}
40 км 10/10 1000 м
[]
+13.0 +8.2 73 +9 +9 1018.6 1017.4
01 13.06 В 8-8
{17}
35 км слаб. ливневой дождь 10/0 600 м
[]
+13.0 +8.3 73 +10 +10 1019.5 1018.3
09 13.06 В 12-13
{17}
19 км 10/0 200 м
[]
+12.5 +11.6 94 +9 +9 1015.0 1013.8
10 13.06 В 10 14 км в посл. час дождь 10/10 100 м
[]
+12.4 +12.0 97 +9 +9 1014.8 1013.6
11 13.06 В 11 5000 м ливневой дождь 10/10 100 м
[]
+11.9 +11.7 99 +8 +8 1014.7 1013.5
12 13.06 В 9-12
{12}
10 км слаб. ливневой дождь 10/10 100 м
[]
+12.3 +12.1 99 +9 +9 1014.6 1013.3
13 13.06 12 км слаб. ливневой дождь 8/5 100 м
[]
+12.9 +12.6 98 1014.3 1013.0
14 13.06 В 12-14
{14}
13 км в посл. час морось 9/9 100 м
[]
+12.8 +12.3 97 +9 +9 1013.4 1012.2
15 13.06 В 12-14
{15}
16 км 10/0 300 м
[]
+12.7 +11.9 95 +9 +9 1013.3 1012.0
16 13.06 ЮВ 12 17 км 9/9 300 м
[]
+12.6 +11.7 94 +9 +9 1013.4 1012.2
17 13.06 В 12-13
{14}
18 км 10/0 300 м
[]
+12.4 +11.6 95 +8 +8 1012.7 1011.5
18 13.06 ЮВ 10-11
{12}
15 км 10/10 200 м
[]
+11.9 +11.3 96 +8 +8 1013.1 1011.9
19 13.06 В 7 11 км 10/10 100 м
[]
+11.6 +11.3 98 +8 +8 1013.6 1012.3
20 13.06 В 6 8000 м дымка 10/10 50 м
[]
+11.4 +11.1 98 +8 +8 1013.2 1012.0
21 13.06 ЮВ 6-6
{8}
500 м туман {дымка} ?/? +11.1 +11.0 99 +8 +8 1014.1 1012.9
22 13.06 ЮВ 2 100 м туман ?/? +11.0 +10.9 99 +10 +10 1014.0 1012.7
23 13.06 С 1-1
{3}
100 м туман ?/? +11.3 +11.2 99 +11 +11 1014.0 1012.8
00 14.06 СЗ 6-7
{7}
200 м туман {дымка} ?/? +10.7 +10.6 99 +7 +7 1014.0 1012.8
01 14.06 СЗ 6 300 м туман ?/? +10.4 +10.3 99 +7 +7 1014.0 1012.8
02 14.06 СЗ 7 600 м туман ?/? +10.3 +10.3 100 +6 +6 1014.2 1013.0
03 14.06 СЗ 5-6
{8}
1400 м в посл. час туман ?/? +10.4 +10.4 100 +7 +7 1014.4 1013.1
04 14.06 З 6 600 м туман ?/? +10.3 +10.3 100 +7 +7 1014.8 1013.6
05 14.06 З 8-9
{9}
2000 м морось 10/0 50 м
[]
+10.1 +10.1 100 +6 +6 1014.9 1013.7
06 14.06 З 7-8
{10}
1900 м морось {дождь} 10/10 50 м
[]
+10.4 +10.4 100 +7 +7 1015.1 1013.8 +10.1 +11.9
07 14.06 СЗ 6-8
{8}
3600 м в посл. час морось 10/0 50 м
[]
+10.6 +10.6 100 +7 +7 1015.5 1014.3
08 14.06 СЗ 6 22 км 10/10 50 м
[]
+10.8 +10.8 100 +7 +7 1016.4 1015.1
09 14.06 З 8-9
{9}
30 км {морось} 10/0 100 м
[]
+10.7 +10.6 99 +7 +8 1017.1 1015.8
10 14.06 СЗ 8 7000 м дымка 10/10 100 м
[]
+10.5 +10.3 99 +6 +6 1017.7 1016.5
11 14.06 СЗ 7 2300 м дымка 10/10 50 м
[]
+10.5 +10.4 99 +7 +7 1018.4 1017.1
12 14.06 СЗ 9-10
{10}
11 км {морось, метель} 10/10 50 м
[]
+11.2 +10.9 98 +7 +7 1018.0 1016.7
13 14.06 СЗ 7-8
{10}
28 км 10/10 300 м
[]
+11.2 +10.6 96 +8 +8 1018.5 1017.2
14 14.06 СЗ 9 18 км 10/10 100 м
[]
+11.2 +10.4 95 +7 +7 1018.7 1017.4
15 14.06 СЗ 7-8
{11}
19 км 10/0 300 м
[]
+11.3 +10.4 94 +8 +9 1019.0 1017.7
16 14.06 С 8 28 км 8/8 300 м
[]
+12.2 +10.6 90 +9 +9 1018.3 1017.0
17 14.06 С 4 30 км 5/5 1000 м
[]
+12.2 +10.9 92 +10 +11 1018.8 1017.5
18 14.06 СЗ 4-5
{5}
30 км ясно +11.8 +10.6 92 +10 +10 1018.7 1017.5 +10.4 +12.8
19 14.06 З 4 26 км ясно +11.1 +10.1 94 +9 +9 1019.2 1017.9
20 14.06 З 3 24 км ясно +10.8 +10.1 95 +9 +9 1019.0 1017.7
21 14.06 ЮЗ 1-2
{5}
20 км ясно +10.5 +10.1 97 +10 +10 1019.2 1017.9
22 14.06 Ю 3-3
{4}
17 км ясно +10.5 +10.1 97 +8 +8 1019.1 1017.8
23 14.06 Ю 3 15 км ясно +10.9 +10.4 97 +9 +9 1018.8 1017.5
00 15.06 Ю 4-5
{6}
5000 м дымка 6/6 <50 м
[]
+10.6 +10.4 99 +8 +8 1018.7 1017.4
01 15.06 Ю 4 14 км 6/5 1500 м
[]
+10.8 +10.7 99 +8 +8 1018.4 1017.1
02 15.06 З 4-4
{6}
16 км ясно +11.1 +10.7 97 +9 +9 1018.2 1016.9
03 15.06 З 3-4
{5}
29 км ясно +11.1 +10.4 95 +9 +9 1018.0 1016.7
04 15.06 З 5 35 км ясно +12.1 +10.6 91 +10 +10 1017.9 1016.6
05 15.06 З 3 35 км ясно +11.8 +10.4 91 +10 +13 1018.0 1016.7
06 15.06 З 3-4
{6}
30 км {дымка} ясно +12.1 +10.4 89 +10 +15 1018.0 1016.8 +10.2 +12.3
07 15.06 З 4 40 км ясно +12.6 +10.8 89 +11 +16 1018.0 1016.7
08 15.06 З 5 35 км ясно +13.1 +10.9 86 +11 +17 1018.2 1016.9
09 15.06 З 3-4
{6}
40 км ясно +14.0 +11.4 84 +13 +24 опасность
простуды
1018.2 1017.0
10 15.06 ЮЗ 3-3
{4}
45 км ясно +14.3 +11.6 84 +13 +25 опасность
простуды
1018.0 1016.7
11 15.06 ЮЗ 5 40 км ясно +14.7 +11.5 81 +13 +21 1018.2 1016.9
12 15.06 ЮЗ 4-5
{6}
40 км ясно +15.5 +11.2 76 +15 +24 1018.1 1016.9
13 15.06 ЮЗ 4 40 км ясно +15.4 +11.4 77 +14 +22 1017.8 1016.5
14 15.06 Ю 4-5
{5}
35 км ясно +15.3 +11.6 79 +14 +20 1017.9 1016.6
15 15.06 ЮЗ 5-5
{7}
40 км ясно +14.6 +11.4 81 +13 +16 1017.6 1016.4
16 15.06 ЮВ 2 35 км ясно +14.5 +11.5 82 +14 +18 1017.2 1015.9
17 15.06 ЮВ 2 40 км ясно +14.0 +11.8 87 +13 +16 1017.2 1015.9
18 15.06 ЮЗ 2-4
{5}
45 км ясно +15.1 +11.6 80 +15 +16 1016.9 1015.7 +12.1 +16.6
19 15.06 В 3 35 км ясно +13.7 +12.2 91 +12 +13 1016.7 1015.4
20 15.06 В 3 35 км ясно +13.0 +12.0 94 +12 +12 1016.5 1015.3
21 15.06 Ю 4-4
{4}
28 км ясно +12.9 +11.9 94 +11 +11 1016.0 1014.8
22 15.06 Ю 4 22 км ясно +12.7 +11.8 94 +11 +11 1015.9 1014.6

 

Местоположение метеостанции Лемланд Нихамн (Финляндия): широта 59.96 долгота 19.95 высота над уровнем моря 8 м.

В архиве по умолчанию представлена погода в Лемланд Нихамн за последнюю неделю. Архивные данные за месяц целиком и за предыдущие месяцы, начиная с января 2011 года, Вы можете получить, выбрав интересующий диапазон дат из раскрывающегося списка и нажав кнопку "Ввод!".


*Определитесь, кто Вы:
робот инопланетянин человек

Внимание! Время в таблицах - всемирное. Для получения местного времени необходимо прибавить поправку, которая равна 1 ч.

Смотрите также архив погоды в соседних городах и на ближайших метеорологических станциях:

Погода в Йомала аэропорту (Финляндия) (18 км)
Погода в Йомале (Финляндия) (25 км)
Погода в Логнес Харбор (Финляндия) (26 км)
Погода в Содерарме (Швеция) (38 км)
Погода в Кокар Богскар (Финляндия) (55 км)
Погода в Кумлинге (Финляндия) (55 км)
Погода на Хаммарланде (Финляндия) (59 км)
Погода в Свенска Хогарна (Швеция) (62 км)
Погода в Свенска Хогарна АМС (Швеция) (64 км)
Погода в Сванберге (Швеция) (75 км)

Пояснения к столбцам:

Ветер - указаны скорость ветра в м/с - средняя за 10 мин, порывы в срок и между сроками (в фигурных скобках) и направление, откуда дует ветер: С - северный, СВ - северо-восточный, В - восточный, ЮВ - юго-восточный, Ю - южный, ЮЗ - юго-западный, З - западный, СЗ - северо-западный.
Видимость - горизонтальная дальность видимости в метрах или километрах. При видимости от 1 до 10 км при отсутствии осадков обычно наблюдается дымка, при ухудшении видимости до 1 км и менее - туман. В сухую погоду видимость может ухудшаться дымом, пылью или мглою.
Явления - указаны атмосферные явления, наблюдавшиеся в срок или в последний час перед сроком; фигурными скобками обозначены явления, наблюдавшиеся между сроками (за 1-3 часа до срока); квадратными скобками обозначены град или гололедные отложения с указанием их диаметра в мм.
Облачность - указаны через наклонную черту общая и нижняя облачность в баллах и высота нижней границы облаков в метрах; квадратными скобками обозначены формы облаков: Ci - перистые, Cs - перисто-слоистые, Cc - перисто-кучевые, Ac - высококучевые, As - высокослоистые, Sc - слоисто-кучевые, Ns - слоисто-дождевые, Cu - кучевые, Cb - кучево-дождевые. Подробнее классификацию облаков см. в Атласе облаков (PDF).
T - Температура воздуха - температура, измеренная на высоте 2 м над землей.
Td - Температура точки росы - температура, при понижении до которой содержащийся в воздухе водяной пар достигнет насыщения.
f - Относительная влажность воздуха - влажноcть воздуха, измеренная на высоте 2 м над землей.
Te - Эффективная температура - температура, которую ощущает одетый по сезону человек в тени. Характеристика душности погоды. При расчете учитывается влияние влажности воздуха и скорости ветра на теплоощущения человека.
Tes - Эффективная температура на солнце - температура, которую ощущает человек, с поправкой на солнечный нагрев. Характеристика знойности погоды. Зависит от высоты солнца над горизонтом, облачности и скорости ветра. Ночью, в пасмурную погоду, а также при ветре 12 м/с и более поправка равна нулю.
P - Атмосферное давление - приведенное к уровню моря атмосферное давление.
Po - Атмосферное давление - измеренное на уровне метеостанции атмосферное давление.
Tmin - Минимальная температура - минимум температуры воздуха на высоте 2 м над землей.
Tmax - Максимальная температура - максимум температуры воздуха на высоте 2 м над землей.
R - Количество осадков - Количество выпавших осадков за период времени, мм. При наведении курсора мыши на число - период времени, за который выпало указанное количество осадков.
R24 - Количество осадков - Количество выпавших осадков за 24 часа, мм.
S - Снежный покров - Высота снежного покрова, см. При наведении курсора мыши на число - состояние снежного покрова и степень покрытия местности в баллах.